EST,Max TemperatureF,Mean TemperatureF,Min TemperatureF,Max Dew PointF,MeanDew PointF,Min DewpointF,Max Humidity, Mean Humidity, Min Humidity, Max Sea Level PressureIn, Mean Sea Level PressureIn, Min Sea Level PressureIn, Max VisibilityMiles, Mean VisibilityMiles, Min VisibilityMiles, Max Wind SpeedMPH, Mean Wind SpeedMPH, Max Gust SpeedMPH,PrecipitationIn, CloudCover, Events, WindDirDegrees
2013-12-1,48,42,36,33,28,24,66,54,48,30.24,30.12,29.99,10,10,10,7,3,,0.00,6,,201
2013-12-2,54,48,42,39,36,33,77,64,53,29.98,29.87,29.79,10,10,10,7,1,,0.00,7,,196
2013-12-3,55,50,45,46,43,39,86,79,70,29.90,29.85,29.81,10,10,10,5,2,,0.00,6,,154
2013-12-4,69,59,49,54,49,45,86,70,54,29.96,29.90,29.85,10,10,10,16,4,21,0.00,4,,182
2013-12-5,72,57,41,63,55,41,99,79,60,30.07,29.95,29.89,10,8,2,15,7,23,0.00,5,Rain,229
2013-12-6,41,36,32,40,36,32,99,99,97,30.27,30.11,30.03,10,5,1,10,6,16,0.00,8,Rain-Snow,13
2013-12-7,32,30,27,32,28,25,100,92,85,30.50,30.44,30.27,10,9,3,9,5,,0.00,8,Snow,22
2013-12-8,43,35,27,44,32,25,100,98,90,30.45,30.20,30.00,10,4,0,9,4,,0.00,8,Fog-Rain,63
2013-12-9,42,37,32,43,36,30,100,96,82,30.20,30.11,29.99,10,7,0,8,3,,0.00,8,Fog-Rain,302
2013-12-10,34,30,27,30,23,13,99,76,45,30.33,30.19,30.06,10,8,1,12,5,22,0.00,5,Snow,284
2013-12-11,43,32,22,25,21,18,89,64,40,30.41,30.35,30.28,10,10,10,12,3,23,0.00,1,,258
2013-12-12,31,25,19,22,12,6,75,57,35,30.52,30.42,30.34,10,10,10,10,5,,0.00,3,,278
2013-12-13,43,34,25,27,14,10,71,46,28,30.36,30.27,30.16,10,10,4,9,4,,0.00,1,,207
2013-12-14,52,43,34,47,38,27,97,85,71,30.15,29.90,29.73,10,10,2,14,5,22,0.00,8,,169
2013-12-15,41,36,30,38,29,24,96,85,77,30.12,30.00,29.80,10,10,5,13,8,21,0.00,8,Snow,278
2013-12-16,44,37,30,32,29,25,85,75,61,30.14,30.08,30.02,10,10,10,8,4,,0.00,5,,231
2013-12-17,45,38,32,38,33,25,90,72,62,30.17,30.04,29.95,10,10,5,14,8,29,0.00,7,,265
2013-12-18,41,34,28,25,20,13,80,58,34,30.27,30.22,30.16,10,10,10,14,6,21,0.00,2,,239
2013-12-19,60,47,34,26,22,18,55,34,23,30.20,30.13,30.07,10,10,10,13,5,21,0.00,0,,207
2013-12-20,64,56,49,52,37,21,69,47,27,30.08,30.03,29.98,10,10,10,17,8,20,0.00,6,,209
2013-12-21,74,67,60,59,55,50,79,64,50,29.99,29.87,29.72,10,10,7,22,11,31,0.00,6,Rain,197
2013-12-22,70,64,57,60,54,50,97,82,66,30.01,29.90,29.74,10,9,2,20,10,36,0.00,6,Rain,213
2013-12-23,56,44,32,52,35,24,98,86,68,30.33,30.22,30.00,10,9,2,13,4,21,0.00,8,Rain,317
2013-12-24,32,24,17,27,17,7,90,70,43,30.48,30.40,30.30,10,9,1,13,4,17,0.00,5,,318
2013-12-25,39,26,13,20,14,11,93,63,31,30.45,30.35,30.23,10,10,10,9,4,,0.00,1,,179
2013-12-26,42,36,31,26,22,18,66,54,39,30.37,30.31,30.22,10,10,10,13,6,21,0.00,4,,251
2013-12-27,49,38,27,24,21,18,83,53,31,30.44,30.38,30.34,10,10,10,7,2,,0.00,0,,223
2013-12-28,51,42,32,37,23,20,93,50,30,30.35,30.25,30.05,10,10,7,7,4,,0.00,2,,187
2013-12-29,42,40,38,41,39,37,100,95,84,30.04,29.89,29.80,10,6,0,12,5,18,0.00,8,Fog,250
2013-12-30,41,36,31,39,30,26,100,85,71,30.19,30.13,29.97,10,9,3,13,5,17,0.00,8,Snow,286
2013-12-31,37,32,27,26,22,19,86,68,50,30.38,30.28,30.18,10,10,10,15,6,22,0.00,3,,245